owner,sensor,date,latitude,longitude,vertical_datum,sea_water_temperature,qcFlag 
ENP,ioos.station.NOAA.NDBC:TPEF1:1,2016-01-01T00:00:00Z,25.4100,-80.9640,1.0,26.86,2 
ENP,ioos.station.NOAA.NDBC:TPEF1:1,2016-01-01T01:00:00Z,25.4100,-80.9640,1.0,26.79,2 
ENP,ioos.station.NOAA.NDBC:TPEF1:1,2016-01-01T02:00:00Z,25.4100,-80.9640,1.0,26.63,2 
ENP,ioos.station.NOAA.NDBC:TPEF1:1,2016-01-01T04:00:00Z,25.4100,-80.9640,1.0,26.48,2 
ENP,ioos.station.NOAA.NDBC:TPEF1:1,2016-01-04T10:00:00Z,25.4100,-80.9640,1.0,24.22,2 
ENP,ioos.station.NOAA.NDBC:TPEF1:1,2016-01-04T11:00:00Z,25.4100,-80.9640,1.0,23.89,2 
ENP,ioos.station.NOAA.NDBC:TPEF1:1,2016-01-04T12:00:00Z,25.4100,-80.9640,1.0,23.6,2 
ENP,ioos.station.NOAA.NDBC:TPEF1:1,2016-01-04T13:00:00Z,25.4100,-80.9640,1.0,23.33,2 
ENP,ioos.station.NOAA.NDBC:TPEF1:1,2016-01-04T14:00:00Z,25.4100,-80.9640,1.0,23.07,2 
ENP,ioos.station.NOAA.NDBC:TPEF1:1,2016-01-04T15:00:00Z,25.4100,-80.9640,1.0,22.77,2 
ENP,ioos.station.NOAA.NDBC:TPEF1:1,2016-01-04T16:00:00Z,25.4100,-80.9640,1.0,22.63,2 
ENP,ioos.station.NOAA.NDBC:TPEF1:1,2016-01-04T17:00:00Z,25.4100,-80.9640,1.0,22.61,2 
ENP,ioos.station.NOAA.NDBC:TPEF1:1,2016-01-04T18:00:00Z,25.4100,-80.9640,1.0,22.8,2 
ENP,ioos.station.NOAA.NDBC:TPEF1:1,2016-01-04T19:00:00Z,25.4100,-80.9640,1.0,22.86,2 
ENP,ioos.station.NOAA.NDBC:TPEF1:1,2016-01-04T20:00:00Z,25.4100,-80.9640,1.0,22.88,2 
ENP,ioos.station.NOAA.NDBC:TPEF1:1,2016-01-04T21:00:00Z,25.4100,-80.9640,1.0,22.88,2 
ENP,ioos.station.NOAA.NDBC:TPEF1:1,2016-01-04T22:00:00Z,25.4100,-80.9640,1.0,22.87,2 
ENP,ioos.station.NOAA.NDBC:TPEF1:1,2016-01-04T23:00:00Z,25.4100,-80.9640,1.0,22.86,2 
ENP,ioos.station.NOAA.NDBC:TPEF1:1,2016-01-05T00:00:00Z,25.4100,-80.9640,1.0,22.73,2 
ENP,ioos.station.NOAA.NDBC:TPEF1:1,2016-01-05T01:00:00Z,25.4100,-80.9640,1.0,22.53,2 
ENP,ioos.station.NOAA.NDBC:TPEF1:1,2016-01-05T02:00:00Z,25.4100,-80.9640,1.0,22.36,2 
ENP,ioos.station.NOAA.NDBC:TPEF1:1,2016-01-05T04:00:00Z,25.4100,-80.9640,1.0,22.07,2 
ENP,ioos.station.NOAA.NDBC:TPEF1:1,2016-01-05T05:00:00Z,25.4100,-80.9640,1.0,21.96,2 
ENP,ioos.station.NOAA.NDBC:TPEF1:1,2016-01-05T07:00:00Z,25.4100,-80.9640,1.0,21.87,2 
ENP,ioos.station.NOAA.NDBC:TPEF1:1,2016-01-05T08:00:00Z,25.4100,-80.9640,1.0,21.78,2 
ENP,ioos.station.NOAA.NDBC:TPEF1:1,2016-01-05T09:00:00Z,25.4100,-80.9640,1.0,21.66,2 
ENP,ioos.station.NOAA.NDBC:TPEF1:1,2016-01-05T10:00:00Z,25.4100,-80.9640,1.0,21.49,2 
ENP,ioos.station.NOAA.NDBC:TPEF1:1,2016-01-05T11:00:00Z,25.4100,-80.9640,1.0,21.33,2 
ENP,ioos.station.NOAA.NDBC:TPEF1:1,2016-01-05T14:00:00Z,25.4100,-80.9640,1.0,20.74,2 
ENP,ioos.station.NOAA.NDBC:TPEF1:1,2016-01-06T05:00:00Z,25.4100,-80.9640,1.0,19.51,2 
ENP,ioos.station.NOAA.NDBC:TPEF1:1,2016-01-06T16:00:00Z,25.4100,-80.9640,1.0,19.0,2 
ENP,ioos.station.NOAA.NDBC:TPEF1:1,2016-01-07T05:00:00Z,25.4100,-80.9640,1.0,20.01,2 
ENP,ioos.station.NOAA.NDBC:TPEF1:1,2016-01-07T13:00:00Z,25.4100,-80.9640,1.0,19.67,2 
ENP,ioos.station.NOAA.NDBC:TPEF1:1,2016-01-07T14:00:00Z,25.4100,-80.9640,1.0,19.63,2 
ENP,ioos.station.NOAA.NDBC:TPEF1:1,2016-01-07T15:00:00Z,25.4100,-80.9640,1.0,19.62,2 
ENP,ioos.station.NOAA.NDBC:TPEF1:1,2016-01-07T16:00:00Z,25.4100,-80.9640,1.0,19.62,2 
ENP,ioos.station.NOAA.NDBC:TPEF1:1,2016-01-07T17:00:00Z,25.4100,-80.9640,1.0,19.87,2 
ENP,ioos.station.NOAA.NDBC:TPEF1:1,2016-01-07T18:00:00Z,25.4100,-80.9640,1.0,20.14,2 
ENP,ioos.station.NOAA.NDBC:TPEF1:1,2016-01-07T19:00:00Z,25.4100,-80.9640,1.0,20.52,2 
ENP,ioos.station.NOAA.NDBC:TPEF1:1,2016-01-07T20:00:00Z,25.4100,-80.9640,1.0,20.61,2 
ENP,ioos.station.NOAA.NDBC:TPEF1:1,2016-01-07T21:00:00Z,25.4100,-80.9640,1.0,20.77,2 
ENP,ioos.station.NOAA.NDBC:TPEF1:1,2016-01-07T22:00:00Z,25.4100,-80.9640,1.0,20.89,2 
ENP,ioos.station.NOAA.NDBC:TPEF1:1,2016-01-07T23:00:00Z,25.4100,-80.9640,1.0,20.94,2 
ENP,ioos.station.NOAA.NDBC:TPEF1:1,2016-01-08T00:00:00Z,25.4100,-80.9640,1.0,20.96,2 
ENP,ioos.station.NOAA.NDBC:TPEF1:1,2016-01-08T01:00:00Z,25.4100,-80.9640,1.0,20.96,2 
ENP,ioos.station.NOAA.NDBC:TPEF1:1,2016-01-08T02:00:00Z,25.4100,-80.9640,1.0,20.96,2 
ENP,ioos.station.NOAA.NDBC:TPEF1:1,2016-01-08T03:00:00Z,25.4100,-80.9640,1.0,20.94,2 
ENP,ioos.station.NOAA.NDBC:TPEF1:1,2016-01-08T04:00:00Z,25.4100,-80.9640,1.0,20.89,2 
ENP,ioos.station.NOAA.NDBC:TPEF1:1,2016-01-08T06:00:00Z,25.4100,-80.9640,1.0,20.83,2 
ENP,ioos.station.NOAA.NDBC:TPEF1:1,2016-01-08T07:00:00Z,25.4100,-80.9640,1.0,20.77,2 
ENP,ioos.station.NOAA.NDBC:TPEF1:1,2016-01-08T08:00:00Z,25.4100,-80.9640,1.0,20.71,2 
ENP,ioos.station.NOAA.NDBC:TPEF1:1,2016-01-08T09:00:00Z,25.4100,-80.9640,1.0,20.66,2 
ENP,ioos.station.NOAA.NDBC:TPEF1:1,2016-01-08T10:00:00Z,25.4100,-80.9640,1.0,20.63,2 
ENP,ioos.station.NOAA.NDBC:TPEF1:1,2016-01-08T11:00:00Z,25.4100,-80.9640,1.0,20.56,2 
ENP,ioos.station.NOAA.NDBC:TPEF1:1,2016-01-08T12:00:00Z,25.4100,-80.9640,1.0,20.57,2 
ENP,ioos.station.NOAA.NDBC:TPEF1:1,2016-01-08T13:00:00Z,25.4100,-80.9640,1.0,20.55,2 
ENP,ioos.station.NOAA.NDBC:TPEF1:1,2016-01-08T14:00:00Z,25.4100,-80.9640,1.0,20.54,2 
ENP,ioos.station.NOAA.NDBC:TPEF1:1,2016-01-08T15:00:00Z,25.4100,-80.9640,1.0,20.54,2 
ENP,ioos.station.NOAA.NDBC:TPEF1:1,2016-01-08T16:00:00Z,25.4100,-80.9640,1.0,20.55,2 
ENP,ioos.station.NOAA.NDBC:TPEF1:1,2016-01-08T17:00:00Z,25.4100,-80.9640,1.0,20.57,2 
ENP,ioos.station.NOAA.NDBC:TPEF1:1,2016-01-08T18:00:00Z,25.4100,-80.9640,1.0,20.82,2 
ENP,ioos.station.NOAA.NDBC:TPEF1:1,2016-01-08T19:00:00Z,25.4100,-80.9640,1.0,21.07,2 
ENP,ioos.station.NOAA.NDBC:TPEF1:1,2016-01-08T20:00:00Z,25.4100,-80.9640,1.0,21.16,2 
ENP,ioos.station.NOAA.NDBC:TPEF1:1,2016-01-08T21:00:00Z,25.4100,-80.9640,1.0,21.19,2 
ENP,ioos.station.NOAA.NDBC:TPEF1:1,2016-01-08T22:00:00Z,25.4100,-80.9640,1.0,21.29,2 
ENP,ioos.station.NOAA.NDBC:TPEF1:1,2016-01-08T23:00:00Z,25.4100,-80.9640,1.0,21.4,2 
ENP,ioos.station.NOAA.NDBC:TPEF1:1,2016-01-09T00:00:00Z,25.4100,-80.9640,1.0,21.5,2 
ENP,ioos.station.NOAA.NDBC:TPEF1:1,2016-01-09T01:00:00Z,25.4100,-80.9640,1.0,21.53,2 
ENP,ioos.station.NOAA.NDBC:TPEF1:1,2016-01-09T02:00:00Z,25.4100,-80.9640,1.0,21.55,2 
ENP,ioos.station.NOAA.NDBC:TPEF1:1,2016-01-09T03:00:00Z,25.4100,-80.9640,1.0,21.57,2 
ENP,ioos.station.NOAA.NDBC:TPEF1:1,2016-01-09T04:00:00Z,25.4100,-80.9640,1.0,21.58,2 
ENP,ioos.station.NOAA.NDBC:TPEF1:1,2016-01-09T06:00:00Z,25.4100,-80.9640,1.0,21.57,2 
ENP,ioos.station.NOAA.NDBC:TPEF1:1,2016-01-09T07:00:00Z,25.4100,-80.9640,1.0,21.55,2 
ENP,ioos.station.NOAA.NDBC:TPEF1:1,2016-01-09T08:00:00Z,25.4100,-80.9640,1.0,21.54,2 
ENP,ioos.station.NOAA.NDBC:TPEF1:1,2016-01-09T09:00:00Z,25.4100,-80.9640,1.0,21.53,2 
ENP,ioos.station.NOAA.NDBC:TPEF1:1,2016-01-09T10:00:00Z,25.4100,-80.9640,1.0,21.49,2 
ENP,ioos.station.NOAA.NDBC:TPEF1:1,2016-01-09T11:00:00Z,25.4100,-80.9640,1.0,21.43,2 
ENP,ioos.station.NOAA.NDBC:TPEF1:1,2016-01-09T12:00:00Z,25.4100,-80.9640,1.0,21.38,2 
ENP,ioos.station.NOAA.NDBC:TPEF1:1,2016-01-09T13:00:00Z,25.4100,-80.9640,1.0,21.39,2 
ENP,ioos.station.NOAA.NDBC:TPEF1:1,2016-01-09T14:00:00Z,25.4100,-80.9640,1.0,21.39,2 
ENP,ioos.station.NOAA.NDBC:TPEF1:1,2016-01-09T15:00:00Z,25.4100,-80.9640,1.0,21.39,2 
ENP,ioos.station.NOAA.NDBC:TPEF1:1,2016-01-09T16:00:00Z,25.4100,-80.9640,1.0,21.42,2 
ENP,ioos.station.NOAA.NDBC:TPEF1:1,2016-01-09T17:00:00Z,25.4100,-80.9640,1.0,21.78,2 
ENP,ioos.station.NOAA.NDBC:TPEF1:1,2016-01-09T18:00:00Z,25.4100,-80.9640,1.0,22.03,2 
ENP,ioos.station.NOAA.NDBC:TPEF1:1,2016-01-09T19:00:00Z,25.4100,-80.9640,1.0,22.65,2 
ENP,ioos.station.NOAA.NDBC:TPEF1:1,2016-01-09T20:00:00Z,25.4100,-80.9640,1.0,22.95,2 
ENP,ioos.station.NOAA.NDBC:TPEF1:1,2016-01-09T21:00:00Z,25.4100,-80.9640,1.0,23.0,2 
ENP,ioos.station.NOAA.NDBC:TPEF1:1,2016-01-09T22:00:00Z,25.4100,-80.9640,1.0,23.05,2 
ENP,ioos.station.NOAA.NDBC:TPEF1:1,2016-01-09T23:00:00Z,25.4100,-80.9640,1.0,23.09,2 
ENP,ioos.station.NOAA.NDBC:TPEF1:1,2016-01-10T00:00:00Z,25.4100,-80.9640,1.0,23.08,2 
ENP,ioos.station.NOAA.NDBC:TPEF1:1,2016-01-10T01:00:00Z,25.4100,-80.9640,1.0,23.08,2 
ENP,ioos.station.NOAA.NDBC:TPEF1:1,2016-01-10T02:00:00Z,25.4100,-80.9640,1.0,23.09,2 
ENP,ioos.station.NOAA.NDBC:TPEF1:1,2016-01-10T03:00:00Z,25.4100,-80.9640,1.0,23.05,2 
ENP,ioos.station.NOAA.NDBC:TPEF1:1,2016-01-10T04:00:00Z,25.4100,-80.9640,1.0,22.95,2 
ENP,ioos.station.NOAA.NDBC:TPEF1:1,2016-01-10T06:00:00Z,25.4100,-80.9640,1.0,22.71,2 
ENP,ioos.station.NOAA.NDBC:TPEF1:1,2016-01-10T07:00:00Z,25.4100,-80.9640,1.0,22.59,2 
ENP,ioos.station.NOAA.NDBC:TPEF1:1,2016-01-10T08:00:00Z,25.4100,-80.9640,1.0,22.49,2 
ENP,ioos.station.NOAA.NDBC:TPEF1:1,2016-01-10T09:00:00Z,25.4100,-80.9640,1.0,22.52,2 
ENP,ioos.station.NOAA.NDBC:TPEF1:1,2016-01-10T11:00:00Z,25.4100,-80.9640,1.0,22.51,2 
ENP,ioos.station.NOAA.NDBC:TPEF1:1,2016-01-10T12:00:00Z,25.4100,-80.9640,1.0,22.51,2 
ENP,ioos.station.NOAA.NDBC:TPEF1:1,2016-01-10T13:00:00Z,25.4100,-80.9640,1.0,22.48,2 
ENP,ioos.station.NOAA.NDBC:TPEF1:1,2016-01-10T14:00:00Z,25.4100,-80.9640,1.0,22.42,2 
ENP,ioos.station.NOAA.NDBC:TPEF1:1,2016-01-10T15:00:00Z,25.4100,-80.9640,1.0,22.39,2 
ENP,ioos.station.NOAA.NDBC:TPEF1:1,2016-01-10T17:00:00Z,25.4100,-80.9640,1.0,22.44,2 
ENP,ioos.station.NOAA.NDBC:TPEF1:1,2016-01-10T18:00:00Z,25.4100,-80.9640,1.0,22.58,2 
ENP,ioos.station.NOAA.NDBC:TPEF1:1,2016-01-10T19:00:00Z,25.4100,-80.9640,1.0,22.74,2 
ENP,ioos.station.NOAA.NDBC:TPEF1:1,2016-01-10T20:00:00Z,25.4100,-80.9640,1.0,22.9,2 
ENP,ioos.station.NOAA.NDBC:TPEF1:1,2016-01-10T21:00:00Z,25.4100,-80.9640,1.0,23.04,2 
ENP,ioos.station.NOAA.NDBC:TPEF1:1,2016-01-10T22:00:00Z,25.4100,-80.9640,1.0,23.18,2 
ENP,ioos.station.NOAA.NDBC:TPEF1:1,2016-01-10T23:00:00Z,25.4100,-80.9640,1.0,23.3,2 
ENP,ioos.station.NOAA.NDBC:TPEF1:1,2016-01-11T00:00:00Z,25.4100,-80.9640,1.0,23.32,2 
ENP,ioos.station.NOAA.NDBC:TPEF1:1,2016-01-11T01:00:00Z,25.4100,-80.9640,1.0,23.31,2 
ENP,ioos.station.NOAA.NDBC:TPEF1:1,2016-01-11T02:00:00Z,25.4100,-80.9640,1.0,23.31,2 
ENP,ioos.station.NOAA.NDBC:TPEF1:1,2016-01-11T03:00:00Z,25.4100,-80.9640,1.0,23.3,2 
ENP,ioos.station.NOAA.NDBC:TPEF1:1,2016-01-11T04:00:00Z,25.4100,-80.9640,1.0,23.28,2 
ENP,ioos.station.NOAA.NDBC:TPEF1:1,2016-01-11T05:00:00Z,25.4100,-80.9640,1.0,23.27,2 
ENP,ioos.station.NOAA.NDBC:TPEF1:1,2016-01-11T06:00:00Z,25.4100,-80.9640,1.0,23.27,2 
ENP,ioos.station.NOAA.NDBC:TPEF1:1,2016-01-11T07:00:00Z,25.4100,-80.9640,1.0,23.24,2 
ENP,ioos.station.NOAA.NDBC:TPEF1:1,2016-01-11T08:00:00Z,25.4100,-80.9640,1.0,23.2,2 
ENP,ioos.station.NOAA.NDBC:TPEF1:1,2016-01-11T09:00:00Z,25.4100,-80.9640,1.0,23.16,2 
ENP,ioos.station.NOAA.NDBC:TPEF1:1,2016-01-11T10:00:00Z,25.4100,-80.9640,1.0,23.13,2 
ENP,ioos.station.NOAA.NDBC:TPEF1:1,2016-01-11T11:00:00Z,25.4100,-80.9640,1.0,23.08,2 
ENP,ioos.station.NOAA.NDBC:TPEF1:1,2016-01-11T12:00:00Z,25.4100,-80.9640,1.0,23.0,2 
ENP,ioos.station.NOAA.NDBC:TPEF1:1,2016-01-11T13:00:00Z,25.4100,-80.9640,1.0,22.84,2 
ENP,ioos.station.NOAA.NDBC:TPEF1:1,2016-01-11T14:00:00Z,25.4100,-80.9640,1.0,22.49,2 
ENP,ioos.station.NOAA.NDBC:TPEF1:1,2016-01-11T15:00:00Z,25.4100,-80.9640,1.0,22.07,2 
ENP,ioos.station.NOAA.NDBC:TPEF1:1,2016-01-11T16:00:00Z,25.4100,-80.9640,1.0,21.82,2 
ENP,ioos.station.NOAA.NDBC:TPEF1:1,2016-01-11T17:00:00Z,25.4100,-80.9640,1.0,21.64,2 
ENP,ioos.station.NOAA.NDBC:TPEF1:1,2016-01-11T18:00:00Z,25.4100,-80.9640,1.0,21.54,2 
ENP,ioos.station.NOAA.NDBC:TPEF1:1,2016-01-11T19:00:00Z,25.4100,-80.9640,1.0,21.52,2 
ENP,ioos.station.NOAA.NDBC:TPEF1:1,2016-01-11T20:00:00Z,25.4100,-80.9640,1.0,21.56,2 
ENP,ioos.station.NOAA.NDBC:TPEF1:1,2016-01-11T21:00:00Z,25.4100,-80.9640,1.0,21.65,2 
ENP,ioos.station.NOAA.NDBC:TPEF1:1,2016-01-11T22:00:00Z,25.4100,-80.9640,1.0,21.73,2 
ENP,ioos.station.NOAA.NDBC:TPEF1:1,2016-01-11T23:00:00Z,25.4100,-80.9640,1.0,21.76,2 
ENP,ioos.station.NOAA.NDBC:TPEF1:1,2016-01-12T00:00:00Z,25.4100,-80.9640,1.0,21.74,2 
ENP,ioos.station.NOAA.NDBC:TPEF1:1,2016-01-12T01:00:00Z,25.4100,-80.9640,1.0,21.69,2 
ENP,ioos.station.NOAA.NDBC:TPEF1:1,2016-01-12T02:00:00Z,25.4100,-80.9640,1.0,21.59,2 
ENP,ioos.station.NOAA.NDBC:TPEF1:1,2016-01-12T03:00:00Z,25.4100,-80.9640,1.0,21.54,2 
ENP,ioos.station.NOAA.NDBC:TPEF1:1,2016-01-12T04:00:00Z,25.4100,-80.9640,1.0,21.45,2 
ENP,ioos.station.NOAA.NDBC:TPEF1:1,2016-01-12T06:00:00Z,25.4100,-80.9640,1.0,21.29,2 
ENP,ioos.station.NOAA.NDBC:TPEF1:1,2016-01-12T07:00:00Z,25.4100,-80.9640,1.0,21.16,2 
ENP,ioos.station.NOAA.NDBC:TPEF1:1,2016-01-12T08:00:00Z,25.4100,-80.9640,1.0,21.01,2 
ENP,ioos.station.NOAA.NDBC:TPEF1:1,2016-01-12T09:00:00Z,25.4100,-80.9640,1.0,20.9,2 
ENP,ioos.station.NOAA.NDBC:TPEF1:1,2016-01-12T11:00:00Z,25.4100,-80.9640,1.0,20.35,2 
ENP,ioos.station.NOAA.NDBC:TPEF1:1,2016-01-12T12:00:00Z,25.4100,-80.9640,1.0,20.35,2 
ENP,ioos.station.NOAA.NDBC:TPEF1:1,2016-01-12T13:00:00Z,25.4100,-80.9640,1.0,20.25,2 
ENP,ioos.station.NOAA.NDBC:TPEF1:1,2016-01-12T15:00:00Z,25.4100,-80.9640,1.0,19.98,2 
ENP,ioos.station.NOAA.NDBC:TPEF1:1,2016-01-12T17:00:00Z,25.4100,-80.9640,1.0,19.76,2 
ENP,ioos.station.NOAA.NDBC:TPEF1:1,2016-01-12T18:00:00Z,25.4100,-80.9640,1.0,19.69,2 
ENP,ioos.station.NOAA.NDBC:TPEF1:1,2016-01-12T21:00:00Z,25.4100,-80.9640,1.0,19.67,2 
ENP,ioos.station.NOAA.NDBC:TPEF1:1,2016-01-12T23:00:00Z,25.4100,-80.9640,1.0,19.67,2 
ENP,ioos.station.NOAA.NDBC:TPEF1:1,2016-01-13T02:00:00Z,25.4100,-80.9640,1.0,19.63,2 
ENP,ioos.station.NOAA.NDBC:TPEF1:1,2016-01-13T04:00:00Z,25.4100,-80.9640,1.0,19.56,2 
ENP,ioos.station.NOAA.NDBC:TPEF1:1,2016-01-13T06:00:00Z,25.4100,-80.9640,1.0,19.55,2 
ENP,ioos.station.NOAA.NDBC:TPEF1:1,2016-01-13T07:00:00Z,25.4100,-80.9640,1.0,19.7,2 
ENP,ioos.station.NOAA.NDBC:TPEF1:1,2016-01-13T08:00:00Z,25.4100,-80.9640,1.0,19.68,2 
ENP,ioos.station.NOAA.NDBC:TPEF1:1,2016-01-13T09:00:00Z,25.4100,-80.9640,1.0,19.55,2 
ENP,ioos.station.NOAA.NDBC:TPEF1:1,2016-01-13T10:00:00Z,25.4100,-80.9640,1.0,18.85,2 
ENP,ioos.station.NOAA.NDBC:TPEF1:1,2016-01-13T11:00:00Z,25.4100,-80.9640,1.0,18.67,2 
ENP,ioos.station.NOAA.NDBC:TPEF1:1,2016-01-13T12:00:00Z,25.4100,-80.9640,1.0,18.59,2 
ENP,ioos.station.NOAA.NDBC:TPEF1:1,2016-01-13T13:00:00Z,25.4100,-80.9640,1.0,18.6,2 
ENP,ioos.station.NOAA.NDBC:TPEF1:1,2016-01-13T14:00:00Z,25.4100,-80.9640,1.0,18.57,2 
ENP,ioos.station.NOAA.NDBC:TPEF1:1,2016-01-13T15:00:00Z,25.4100,-80.9640,1.0,18.47,2 
ENP,ioos.station.NOAA.NDBC:TPEF1:1,2016-01-13T17:00:00Z,25.4100,-80.9640,1.0,18.24,2 
ENP,ioos.station.NOAA.NDBC:TPEF1:1,2016-01-13T18:00:00Z,25.4100,-80.9640,1.0,18.15,2 
ENP,ioos.station.NOAA.NDBC:TPEF1:1,2016-01-13T19:00:00Z,25.4100,-80.9640,1.0,18.13,2 
ENP,ioos.station.NOAA.NDBC:TPEF1:1,2016-01-13T20:00:00Z,25.4100,-80.9640,1.0,18.26,2 
ENP,ioos.station.NOAA.NDBC:TPEF1:1,2016-01-13T21:00:00Z,25.4100,-80.9640,1.0,18.46,2 
ENP,ioos.station.NOAA.NDBC:TPEF1:1,2016-01-13T22:00:00Z,25.4100,-80.9640,1.0,18.52,2 
ENP,ioos.station.NOAA.NDBC:TPEF1:1,2016-01-13T23:00:00Z,25.4100,-80.9640,1.0,18.56,2 
ENP,ioos.station.NOAA.NDBC:TPEF1:1,2016-01-14T00:00:00Z,25.4100,-80.9640,1.0,18.52,2 
ENP,ioos.station.NOAA.NDBC:TPEF1:1,2016-01-14T01:00:00Z,25.4100,-80.9640,1.0,18.51,2 
ENP,ioos.station.NOAA.NDBC:TPEF1:1,2016-01-14T02:00:00Z,25.4100,-80.9640,1.0,18.5,2 
ENP,ioos.station.NOAA.NDBC:TPEF1:1,2016-01-14T03:00:00Z,25.4100,-80.9640,1.0,18.48,2 
ENP,ioos.station.NOAA.NDBC:TPEF1:1,2016-01-14T04:00:00Z,25.4100,-80.9640,1.0,18.47,2 
ENP,ioos.station.NOAA.NDBC:TPEF1:1,2016-01-14T05:00:00Z,25.4100,-80.9640,1.0,18.44,2 
ENP,ioos.station.NOAA.NDBC:TPEF1:1,2016-01-14T06:00:00Z,25.4100,-80.9640,1.0,18.41,2 
ENP,ioos.station.NOAA.NDBC:TPEF1:1,2016-01-14T07:00:00Z,25.4100,-80.9640,1.0,18.41,2 
ENP,ioos.station.NOAA.NDBC:TPEF1:1,2016-01-14T08:00:00Z,25.4100,-80.9640,1.0,18.54,2 
ENP,ioos.station.NOAA.NDBC:TPEF1:1,2016-01-14T09:00:00Z,25.4100,-80.9640,1.0,18.36,2 
ENP,ioos.station.NOAA.NDBC:TPEF1:1,2016-01-14T11:00:00Z,25.4100,-80.9640,1.0,18.03,2 
ENP,ioos.station.NOAA.NDBC:TPEF1:1,2016-01-14T12:00:00Z,25.4100,-80.9640,1.0,17.96,2 
ENP,ioos.station.NOAA.NDBC:TPEF1:1,2016-01-14T13:00:00Z,25.4100,-80.9640,1.0,17.93,2 
ENP,ioos.station.NOAA.NDBC:TPEF1:1,2016-01-14T14:00:00Z,25.4100,-80.9640,1.0,17.92,2 
ENP,ioos.station.NOAA.NDBC:TPEF1:1,2016-01-14T15:00:00Z,25.4100,-80.9640,1.0,17.88,2 
ENP,ioos.station.NOAA.NDBC:TPEF1:1,2016-01-14T16:00:00Z,25.4100,-80.9640,1.0,17.87,2 
ENP,ioos.station.NOAA.NDBC:TPEF1:1,2016-01-14T17:00:00Z,25.4100,-80.9640,1.0,17.87,2 
ENP,ioos.station.NOAA.NDBC:TPEF1:1,2016-01-14T18:00:00Z,25.4100,-80.9640,1.0,17.89,2 
ENP,ioos.station.NOAA.NDBC:TPEF1:1,2016-01-14T19:00:00Z,25.4100,-80.9640,1.0,17.91,2 
ENP,ioos.station.NOAA.NDBC:TPEF1:1,2016-01-14T20:00:00Z,25.4100,-80.9640,1.0,18.01,2 
ENP,ioos.station.NOAA.NDBC:TPEF1:1,2016-01-14T21:00:00Z,25.4100,-80.9640,1.0,18.15,2 
ENP,ioos.station.NOAA.NDBC:TPEF1:1,2016-01-14T22:00:00Z,25.4100,-80.9640,1.0,18.28,2 
ENP,ioos.station.NOAA.NDBC:TPEF1:1,2016-01-14T23:00:00Z,25.4100,-80.9640,1.0,18.34,2 
ENP,ioos.station.NOAA.NDBC:TPEF1:1,2016-01-15T00:00:00Z,25.4100,-80.9640,1.0,18.36,2 
ENP,ioos.station.NOAA.NDBC:TPEF1:1,2016-01-15T01:00:00Z,25.4100,-80.9640,1.0,18.32,2 
ENP,ioos.station.NOAA.NDBC:TPEF1:1,2016-01-15T02:00:00Z,25.4100,-80.9640,1.0,18.3,2 
ENP,ioos.station.NOAA.NDBC:TPEF1:1,2016-01-15T03:00:00Z,25.4100,-80.9640,1.0,18.3,2 
ENP,ioos.station.NOAA.NDBC:TPEF1:1,2016-01-15T04:00:00Z,25.4100,-80.9640,1.0,18.31,2 
ENP,ioos.station.NOAA.NDBC:TPEF1:1,2016-01-15T06:00:00Z,25.4100,-80.9640,1.0,18.31,2 
ENP,ioos.station.NOAA.NDBC:TPEF1:1,2016-01-15T07:00:00Z,25.4100,-80.9640,1.0,18.3,2 
ENP,ioos.station.NOAA.NDBC:TPEF1:1,2016-01-15T08:00:00Z,25.4100,-80.9640,1.0,18.31,2 
ENP,ioos.station.NOAA.NDBC:TPEF1:1,2016-01-15T09:00:00Z,25.4100,-80.9640,1.0,18.4,2 
ENP,ioos.station.NOAA.NDBC:TPEF1:1,2016-01-15T11:00:00Z,25.4100,-80.9640,1.0,18.48,2 
ENP,ioos.station.NOAA.NDBC:TPEF1:1,2016-01-15T12:00:00Z,25.4100,-80.9640,1.0,18.51,2 
ENP,ioos.station.NOAA.NDBC:TPEF1:1,2016-01-15T13:00:00Z,25.4100,-80.9640,1.0,18.54,2 
ENP,ioos.station.NOAA.NDBC:TPEF1:1,2016-01-15T15:00:00Z,25.4100,-80.9640,1.0,18.61,2 
ENP,ioos.station.NOAA.NDBC:TPEF1:1,2016-01-15T16:00:00Z,25.4100,-80.9640,1.0,18.71,2 
ENP,ioos.station.NOAA.NDBC:TPEF1:1,2016-01-15T17:00:00Z,25.4100,-80.9640,1.0,18.89,2 
ENP,ioos.station.NOAA.NDBC:TPEF1:1,2016-01-15T18:00:00Z,25.4100,-80.9640,1.0,19.13,2 
ENP,ioos.station.NOAA.NDBC:TPEF1:1,2016-01-15T19:00:00Z,25.4100,-80.9640,1.0,19.27,2 
ENP,ioos.station.NOAA.NDBC:TPEF1:1,2016-01-15T20:00:00Z,25.4100,-80.9640,1.0,19.49,2 
ENP,ioos.station.NOAA.NDBC:TPEF1:1,2016-01-15T22:00:00Z,25.4100,-80.9640,1.0,19.66,2 
ENP,ioos.station.NOAA.NDBC:TPEF1:1,2016-01-15T23:00:00Z,25.4100,-80.9640,1.0,19.63,2 
ENP,ioos.station.NOAA.NDBC:TPEF1:1,2016-01-16T01:00:00Z,25.4100,-80.9640,1.0,19.53,2 
ENP,ioos.station.NOAA.NDBC:TPEF1:1,2016-01-16T02:00:00Z,25.4100,-80.9640,1.0,19.42,2 
ENP,ioos.station.NOAA.NDBC:TPEF1:1,2016-01-16T04:00:00Z,25.4100,-80.9640,1.0,19.3,2 
ENP,ioos.station.NOAA.NDBC:TPEF1:1,2016-01-16T06:00:00Z,25.4100,-80.9640,1.0,19.28,2 
ENP,ioos.station.NOAA.NDBC:TPEF1:1,2016-01-16T07:00:00Z,25.4100,-80.9640,1.0,19.28,2 
ENP,ioos.station.NOAA.NDBC:TPEF1:1,2016-01-16T08:00:00Z,25.4100,-80.9640,1.0,19.29,2 
ENP,ioos.station.NOAA.NDBC:TPEF1:1,2016-01-16T09:00:00Z,25.4100,-80.9640,1.0,19.29,2 
ENP,ioos.station.NOAA.NDBC:TPEF1:1,2016-01-16T11:00:00Z,25.4100,-80.9640,1.0,19.21,2 
ENP,ioos.station.NOAA.NDBC:TPEF1:1,2016-01-16T14:00:00Z,25.4100,-80.9640,1.0,19.06,2 
ENP,ioos.station.NOAA.NDBC:TPEF1:1,2016-01-16T16:00:00Z,25.4100,-80.9640,1.0,19.04,2 
ENP,ioos.station.NOAA.NDBC:TPEF1:1,2016-01-16T17:00:00Z,25.4100,-80.9640,1.0,19.07,2 
ENP,ioos.station.NOAA.NDBC:TPEF1:1,2016-01-16T18:00:00Z,25.4100,-80.9640,1.0,19.1,2 
ENP,ioos.station.NOAA.NDBC:TPEF1:1,2016-01-17T00:00:00Z,25.4100,-80.9640,1.0,19.9,2 
ENP,ioos.station.NOAA.NDBC:TPEF1:1,2016-01-17T02:00:00Z,25.4100,-80.9640,1.0,20.0,2 
ENP,ioos.station.NOAA.NDBC:TPEF1:1,2016-01-17T03:00:00Z,25.4100,-80.9640,1.0,20.01,2 
ENP,ioos.station.NOAA.NDBC:TPEF1:1,2016-01-17T04:00:00Z,25.4100,-80.9640,1.0,20.0,2 
ENP,ioos.station.NOAA.NDBC:TPEF1:1,2016-01-17T07:00:00Z,25.4100,-80.9640,1.0,20.08,2 
ENP,ioos.station.NOAA.NDBC:TPEF1:1,2016-01-17T08:00:00Z,25.4100,-80.9640,1.0,20.09,2 
ENP,ioos.station.NOAA.NDBC:TPEF1:1,2016-01-17T09:00:00Z,25.4100,-80.9640,1.0,20.13,2 
ENP,ioos.station.NOAA.NDBC:TPEF1:1,2016-01-17T11:00:00Z,25.4100,-80.9640,1.0,20.28,2 
ENP,ioos.station.NOAA.NDBC:TPEF1:1,2016-01-17T12:00:00Z,25.4100,-80.9640,1.0,20.27,2 
ENP,ioos.station.NOAA.NDBC:TPEF1:1,2016-01-17T13:00:00Z,25.4100,-80.9640,1.0,20.29,2 
ENP,ioos.station.NOAA.NDBC:TPEF1:1,2016-01-17T14:00:00Z,25.4100,-80.9640,1.0,20.3,2 
ENP,ioos.station.NOAA.NDBC:TPEF1:1,2016-01-17T15:00:00Z,25.4100,-80.9640,1.0,20.29,2 
ENP,ioos.station.NOAA.NDBC:TPEF1:1,2016-01-17T16:00:00Z,25.4100,-80.9640,1.0,20.3,2 
ENP,ioos.station.NOAA.NDBC:TPEF1:1,2016-01-17T17:00:00Z,25.4100,-80.9640,1.0,20.43,2 
ENP,ioos.station.NOAA.NDBC:TPEF1:1,2016-01-17T19:00:00Z,25.4100,-80.9640,1.0,21.05,2 
ENP,ioos.station.NOAA.NDBC:TPEF1:1,2016-01-17T21:00:00Z,25.4100,-80.9640,1.0,21.02,2 
ENP,ioos.station.NOAA.NDBC:TPEF1:1,2016-01-17T22:00:00Z,25.4100,-80.9640,1.0,21.0,2 
ENP,ioos.station.NOAA.NDBC:TPEF1:1,2016-01-17T23:00:00Z,25.4100,-80.9640,1.0,20.99,2 
ENP,ioos.station.NOAA.NDBC:TPEF1:1,2016-01-18T01:00:00Z,25.4100,-80.9640,1.0,20.84,2 
ENP,ioos.station.NOAA.NDBC:TPEF1:1,2016-01-18T02:00:00Z,25.4100,-80.9640,1.0,20.79,2 
ENP,ioos.station.NOAA.NDBC:TPEF1:1,2016-01-18T03:00:00Z,25.4100,-80.9640,1.0,20.71,2 
ENP,ioos.station.NOAA.NDBC:TPEF1:1,2016-01-18T04:00:00Z,25.4100,-80.9640,1.0,20.61,2 
ENP,ioos.station.NOAA.NDBC:TPEF1:1,2016-01-18T06:00:00Z,25.4100,-80.9640,1.0,20.43,2 
ENP,ioos.station.NOAA.NDBC:TPEF1:1,2016-01-18T07:00:00Z,25.4100,-80.9640,1.0,20.3,2 
ENP,ioos.station.NOAA.NDBC:TPEF1:1,2016-01-18T08:00:00Z,25.4100,-80.9640,1.0,20.15,2 
ENP,ioos.station.NOAA.NDBC:TPEF1:1,2016-01-18T09:00:00Z,25.4100,-80.9640,1.0,19.97,2 
ENP,ioos.station.NOAA.NDBC:TPEF1:1,2016-01-18T11:00:00Z,25.4100,-80.9640,1.0,19.67,2 
ENP,ioos.station.NOAA.NDBC:TPEF1:1,2016-01-18T12:00:00Z,25.4100,-80.9640,1.0,19.51,2 
ENP,ioos.station.NOAA.NDBC:TPEF1:1,2016-01-18T13:00:00Z,25.4100,-80.9640,1.0,19.29,2 
ENP,ioos.station.NOAA.NDBC:TPEF1:1,2016-01-18T14:00:00Z,25.4100,-80.9640,1.0,19.05,2 
ENP,ioos.station.NOAA.NDBC:TPEF1:1,2016-01-18T15:00:00Z,25.4100,-80.9640,1.0,18.53,2 
ENP,ioos.station.NOAA.NDBC:TPEF1:1,2016-01-18T17:00:00Z,25.4100,-80.9640,1.0,18.19,2 
ENP,ioos.station.NOAA.NDBC:TPEF1:1,2016-01-18T18:00:00Z,25.4100,-80.9640,1.0,18.26,2 
ENP,ioos.station.NOAA.NDBC:TPEF1:1,2016-01-18T20:00:00Z,25.4100,-80.9640,1.0,18.46,2 
ENP,ioos.station.NOAA.NDBC:TPEF1:1,2016-01-19T04:00:00Z,25.4100,-80.9640,1.0,17.83,2 
ENP,ioos.station.NOAA.NDBC:TPEF1:1,2016-01-19T06:00:00Z,25.4100,-80.9640,1.0,17.64,2 
ENP,ioos.station.NOAA.NDBC:TPEF1:1,2016-01-19T07:00:00Z,25.4100,-80.9640,1.0,17.56,2 
ENP,ioos.station.NOAA.NDBC:TPEF1:1,2016-01-19T08:00:00Z,25.4100,-80.9640,1.0,17.48,2 
ENP,ioos.station.NOAA.NDBC:TPEF1:1,2016-01-19T09:00:00Z,25.4100,-80.9640,1.0,17.37,2 
ENP,ioos.station.NOAA.NDBC:TPEF1:1,2016-01-19T11:00:00Z,25.4100,-80.9640,1.0,16.85,2 
ENP,ioos.station.NOAA.NDBC:TPEF1:1,2016-01-19T12:00:00Z,25.4100,-80.9640,1.0,16.57,2 
ENP,ioos.station.NOAA.NDBC:TPEF1:1,2016-01-19T13:00:00Z,25.4100,-80.9640,1.0,16.26,2 
ENP,ioos.station.NOAA.NDBC:TPEF1:1,2016-01-19T14:00:00Z,25.4100,-80.9640,1.0,15.99,2 
ENP,ioos.station.NOAA.NDBC:TPEF1:1,2016-01-19T15:00:00Z,25.4100,-80.9640,1.0,15.7,2 
ENP,ioos.station.NOAA.NDBC:TPEF1:1,2016-01-19T16:00:00Z,25.4100,-80.9640,1.0,15.64,2 
ENP,ioos.station.NOAA.NDBC:TPEF1:1,2016-01-19T17:00:00Z,25.4100,-80.9640,1.0,15.64,2 
ENP,ioos.station.NOAA.NDBC:TPEF1:1,2016-01-19T18:00:00Z,25.4100,-80.9640,1.0,15.78,2 
ENP,ioos.station.NOAA.NDBC:TPEF1:1,2016-01-19T19:00:00Z,25.4100,-80.9640,1.0,16.05,2 
ENP,ioos.station.NOAA.NDBC:TPEF1:1,2016-01-19T20:00:00Z,25.4100,-80.9640,1.0,16.16,2 
ENP,ioos.station.NOAA.NDBC:TPEF1:1,2016-01-19T21:00:00Z,25.4100,-80.9640,1.0,16.23,2 
ENP,ioos.station.NOAA.NDBC:TPEF1:1,2016-01-19T22:00:00Z,25.4100,-80.9640,1.0,16.27,2 
ENP,ioos.station.NOAA.NDBC:TPEF1:1,2016-01-20T00:00:00Z,25.4100,-80.9640,1.0,16.11,2 
ENP,ioos.station.NOAA.NDBC:TPEF1:1,2016-01-20T02:00:00Z,25.4100,-80.9640,1.0,15.86,2 